1301788831010,0.889488
1301788891010,0.888767
1301788951010,0.889680
1301789011010,0.885671
1301789071010,0.885858
1301789131010,0.885794
1301789191010,0.879331
1301789251010,0.880255
1301789311010,0.882374
1301789371010,0.886120
1301789431010,0.888063
1301789491010,0.885201
1301789551010,0.881829
1301789611010,0.880768
1301789671010,0.878461
1301789731010,0.875561
1301789791010,0.881428
1301789851010,0.877847
1301789911010,0.880996
1301789971010,0.883955
1301790031010,0.876738
1301790091010,0.880003
1301790151010,0.872999
1301790211010,0.877693
1301790271010,0.869132
1301790331010,0.870096
1301790391010,0.884897
1301790451010,0.873987
1301790511010,0.877059
1301790571010,0.873047
1301790631010,0.882987
1301790691010,0.876671
1301790751010,0.874245
1301790811010,0.880046
1301790871010,0.874613
1301790931010,0.878724
1301790991010,0.882697
1301791051010,0.880724
1301791111010,0.875897
1301791171010,0.871852
1301791231010,0.876153
1301791291010,0.876154
1301791351010,0.882431
1301791411010,0.874754
1301791471010,0.880578
1301791531010,0.877480
1301791591010,0.876259
1301791651010,0.876258
1301791711010,0.876461
1301791771010,0.877008
1301791831010,0.881297
1301791891010,0.876543
1301791951010,0.871862
1301792011010,0.868979
1301792071010,0.878545
1301792131010,0.872311
1301792191010,0.877784
1301792251010,0.872024
1301792311010,0.878621
1301792371010,0.875372
1301792431023,0.878985
1301792491023,0.877366
1301792551023,0.878504
1301792611023,0.881733
1301792671023,0.882976
1301792731023,0.873342
1301792791023,0.875103
1301792851023,0.878258
1301792911023,0.879203
1301792971023,0.875942
1301793031023,0.874401
1301793091023,0.880107
1301793151023,0.879468
1301793211023,0.877919
1301793271023,0.877036
1301793331023,0.880513
1301793391023,0.881209
1301793451023,0.890190
1301793511023,0.883661
1301793571023,0.883607
1301793631023,0.874885
1301793691023,0.880212
1301793751023,0.889173
1301793811023,0.882348
1301793871023,0.882679
1301793931023,0.882214
1301793991023,0.889960
1301794051023,0.884875
1301794111023,0.886299
1301794171023,0.887109
1301794231023,0.881571
1301794291023,0.891205
1301794351023,0.883828
1301794411023,0.885283
1301794471023,0.886965
1301794531023,0.884224
1301794591023,0.892400
1301794651023,0.882860
1301794711023,0.880389
1301794771023,0.875521
1301794831023,0.891238
1301794891023,0.888969
1301794951023,0.887545
1301795011023,0.895916
1301795071023,0.893025
1301795131023,0.882181
1301795191023,0.892330
1301795251023,0.880057
1301795311023,0.888903
1301795371023,0.893415
1301795431023,0.898652
1301795491023,0.893644
1301795551023,0.892479
1301795611023,0.897909
1301795671023,0.892024
1301795731023,0.890484
1301795791023,0.897122
1301795851023,0.891895
1301795911023,0.888815
1301795971023,0.893013
1301796031035,0.897757
1301796091035,0.895284
1301796151035,0.890953
1301796211035,0.888255
1301796271035,0.891823
1301796331035,0.894145
1301796391035,0.894697
1301796451035,0.886327
1301796511035,0.897115
1301796571035,0.881451
1301796631035,0.894217
1301796691035,0.893484
1301796751035,0.896033
1301796811035,0.894964
1301796871035,0.892044
1301796931035,0.893151
1301796991035,0.888408
1301797051035,0.896392
1301797111035,0.892002
1301797171035,0.888081
1301797231035,0.890054
1301797291035,0.892275
1301797351035,0.886124
1301797411035,0.892038
1301797471035,0.893205
1301797531035,0.889075
1301797591035,0.887652
1301797651035,0.885757
1301797711035,0.894795
1301797771035,0.888156
1301797831035,0.890142
1301797891035,0.890014
1301797951035,0.889998
1301798011035,0.893814
1301798071035,0.895556
1301798131035,0.894956
1301798191035,0.895941
1301798251035,0.888906
1301798311035,0.891736
1301798371035,0.889534
1301798431035,0.898103
1301798491035,0.892221
1301798551035,0.900701
1301798611035,0.893712
1301798671035,0.902388
1301798731035,0.895049
1301798791035,0.898354
1301798851035,0.899823
1301798911035,0.903373
1301798971035,0.909264
1301799031035,0.906049
1301799091035,0.898444
1301799151035,0.906288
1301799211035,0.892586
1301799271035,0.902705
1301799331035,0.902435
1301799391035,0.912064
1301799451035,0.908512
1301799511035,0.909798
1301799571035,0.906188
1301799631048,0.903009
1301799691048,0.911364
1301799751048,0.906322
1301799811048,0.906787
1301799871048,0.907394
1301799931048,0.913470
1301799991048,0.913878
1301800051048,0.918346
1301800111048,0.912150
1301800171048,0.913508
1301800231048,0.925013
1301800291048,0.909455
1301800351048,0.906251
1301800411048,0.911969
1301800471048,0.919194
1301800531048,0.913649
1301800591048,0.909024
1301800651048,0.908211
1301800711048,0.913099
1301800771048,0.914412
1301800831048,0.912293
1301800891048,0.914444
1301800951048,0.915211
1301801011048,0.913339
1301801071048,0.906525
1301801131048,0.906245
1301801191048,0.910470
1301801251048,0.909228
1301801311048,0.911999
1301801371048,0.907635
1301801431048,0.912723
1301801491048,0.917010
1301801551048,0.915994
1301801611048,0.914783
1301801671048,0.916968
1301801731048,0.919559
1301801791048,0.925277
1301801851048,0.916859
1301801911048,0.916109
1301801971048,0.919761
1301802031048,0.922603
1301802091048,0.923047
1301802151048,0.917910
1301802211048,0.922617
1301802271048,0.922966
1301802331048,0.914912
1301802391048,0.926665
1301802451048,0.922878
1301802511048,0.914497
1301802571048,0.923048
1301802631048,0.916805
1301802691048,0.918295
1301802751048,0.919685
1301802811048,0.918395
1301802871048,0.923467
1301802931048,0.919193
1301802991048,0.918161
1301803051048,0.919132
1301803111048,0.920211
1301803171048,0.912514
1301803231061,0.915567
1301803291061,0.909667
1301803351061,0.914581
1301803411061,0.916097
1301803471061,0.906522
1301803531061,0.911674
1301803591061,0.913658
1301803651061,0.920292
1301803711061,0.917450
1301803771061,0.902992
1301803831061,0.921605
1301803891061,0.918659
1301803951061,0.920683
1301804011061,0.916657
1301804071061,0.907646
1301804131061,0.909423
1301804191061,0.914750
1301804251061,0.915503
1301804311061,0.919128
1301804371061,0.916132
1301804431061,0.913655
1301804491061,0.913477
1301804551061,0.916295
1301804611061,0.919776
1301804671061,0.917495
1301804731061,0.912295
1301804791061,0.916317
1301804851061,0.916485
1301804911061,0.914204
1301804971061,0.914275
1301805031061,0.915901
1301805091061,0.917625
1301805151061,0.927196
1301805211061,0.917770
1301805271061,0.928111
1301805331061,0.913295
1301805391061,0.920218
1301805451061,0.916397
1301805511061,0.917851
1301805571061,0.917751
1301805631061,0.911111
1301805691061,0.918180
1301805751061,0.916044
1301805811061,0.918005
1301805871061,0.916446
1301805931061,0.909141
1301805991061,0.911875
1301806051061,0.919660
1301806111061,0.917758
1301806171061,0.919599
1301806231061,0.912649
1301806291061,0.918193
1301806351061,0.916577
1301806411061,0.918205
1301806471061,0.909438
1301806531061,0.913810
1301806591061,0.920108
1301806651061,0.912576
1301806711061,0.919008
1301806771061,0.919324
1301806831073,0.913927
1301806891073,0.916383
1301806951073,0.912970
1301807011073,0.914350
1301807071073,0.917982
1301807131073,0.918576
1301807191073,0.915664
1301807251073,0.930724
1301807311073,0.930740
1301807371073,0.921073
1301807431073,0.921086
1301807491073,0.924262
1301807551073,0.931741
1301807611073,0.926069
1301807671073,0.930250
1301807731073,0.937622
1301807791073,0.936979
1301807851073,0.934575
1301807911073,0.941171
1301807971073,0.946439
1301808031073,0.951835
1301808091073,0.948616
1301808151073,0.948307
1301808211073,0.943503
1301808271073,0.956308
1301808331073,0.945428
1301808391073,0.948949
1301808451073,0.944616
1301808511073,0.950726
1301808571073,0.952634
1301808631073,0.954485
1301808691073,0.947827
1301808751073,0.963250
1301808811073,0.959831
1301808871073,0.956248
1301808931073,0.949951
1301808991073,0.949224
1301809051073,0.944748
1301809111073,0.947037
1301809171073,0.949388
1301809231073,0.953570
1301809291073,0.958707
1301809351073,0.954821
1301809411073,0.954274
1301809471073,0.948165
1301809531073,0.947646
1301809591073,0.956793
1301809651073,0.942320
1301809711073,0.954680
1301809771073,0.958516
1301809831073,0.943305
1301809891073,0.952659
1301809951073,0.951391
1301810011073,0.945242
1301810071073,0.961831
1301810131073,0.945446
1301810191073,0.942365
1301810251073,0.951653
1301810311073,0.957161
1301810371073,0.949517
1301810431086,0.948201
1301810491086,0.943363
1301810551086,0.945532
1301810611086,0.939054
1301810671085,0.945884
1301810731086,0.941817
1301810791086,0.942171
1301810851086,0.940138
1301810911086,0.936029
1301810971086,0.943445
1301811031086,0.945178
1301811091086,0.948331
1301811151086,0.945338
1301811211086,0.945332
1301811271086,0.940244
1301811331085,0.932430
1301811391085,0.946614
1301811451085,0.936865
1301811511085,0.942327
1301811571085,0.945248
1301811631085,0.934835
1301811691085,0.936241
1301811751086,0.937132
1301811811086,0.928719
1301811871086,0.931122
1301811931086,0.933224
1301811991085,0.938012
1301812051086,0.938429
1301812111086,0.927803
1301812171086,0.935950
1301813251086,0.933628
1301813311086,0.933974
1301813371085,0.927695
1301813431086,0.924049
1301813491086,0.927181
1301813551086,0.926472
1301813611086,0.933883
1301813671086,0.926648
1301813731086,0.926812
1301813791086,0.929699
1301813851086,0.934388
1301813911086,0.932467
1301813971086,0.924082
1301814031098,0.932721
1301814091098,0.928363
1301814151098,0.926682
1301814211098,0.928077
1301814271098,0.938609
1301814331098,0.931114
1301814391098,0.925719
1301814451098,0.925769
1301814511098,0.919115
1301814571098,0.936983
1301814631098,0.934057
1301814691098,0.920104
1301814751098,0.935488
1301814811098,0.929388
1301814871098,0.936864
1301814931098,0.930572
1301814991098,0.920938
1301815051098,0.927586
1301815111098,0.934253
1301815171098,0.931113
1301815231098,0.931538
1301815291098,0.928911
1301815351098,0.934732
1301815411098,0.942211
1301815471098,0.933199
1301815531098,0.937954
1301815591098,0.934204
1301815651098,0.931277
1301815711098,0.941570
1301815771098,0.932940
1301815831098,0.931184
1301815891098,0.932089
1301815951098,0.931426
1301816011098,0.931901
1301816071098,0.935140
1301816131098,0.931911
1301816191098,0.936359
1301816251098,0.925683
1301816311098,0.938534
1301816371098,0.933234
1301816431098,0.933858
1301816491098,0.932296
1301816551098,0.930414
1301816611098,0.928866
1301816671098,0.928804
1301816731098,0.940591
1301816791098,0.929644
1301816851098,0.943659
1301816911098,0.941060
1301816971098,0.942381
1301817031098,0.942117
1301817091098,0.938471
1301817151098,0.945095
1301817211098,0.939351
1301817271098,0.937365
1301817331098,0.937090
1301817391098,0.938485
1301817451098,0.938978
1301817511098,0.936488
1301817571098,0.935539
1301817631110,0.938774
1301817691110,0.942312
1301817751110,0.944001
1301817811110,0.946501
1301817871110,0.938425
1301817931110,0.943764
1301817991110,0.950308
1301818051110,0.940397
1301818111110,0.945746
1301818171110,0.941716
1301818231110,0.944033
1301818291110,0.940223
1301818351110,0.935803
1301818411110,0.941388
1301818471110,0.940942
1301818531110,0.936857
1301818591110,0.938684
1301818651110,0.938309
1301818711110,0.948314
1301818771110,0.943738
1301818831110,0.939089
1301818891110,0.947884
1301818951110,0.936525
1301819011110,0.947216
1301819071110,0.940058
1301819131110,0.938776
1301819191110,0.947010
1301819251110,0.934656
1301819311110,0.947949
1301819371110,0.941213
1301819431110,0.934507
1301819491110,0.944656
1301819551110,0.946651
1301819611110,0.940241
1301819671110,0.943969
1301819731110,0.945034
1301819791110,0.941631
1301819851110,0.938408
1301819911110,0.947143
1301819971110,0.944845
1301820031110,0.946188
1301820091110,0.944869
1301820151110,0.945213
1301820211110,0.931321
1301820271110,0.937827
1301820331110,0.942560
1301820391110,0.948560
1301820451110,0.939411
1301820511110,0.940460
1301820571110,0.940640
1301820631110,0.931014
1301820691110,0.940569
1301820751110,0.933437
1301820811110,0.932740
1301820871110,0.937572
1301820931110,0.939272
1301820991110,0.941835
1301821051110,0.940439
1301821111110,0.948387
1301821171110,0.939042
1301821231123,0.940837
1301821291123,0.936134
1301821351123,0.939894
1301821411123,0.940289
1301821471123,0.932668
1301821531123,0.940819
1301821591123,0.934541
1301821651123,0.937852
1301821711123,0.936962
1301821771123,0.930044
1301821831123,0.938273
1301821891123,0.940519
1301821951123,0.934527
1301822011123,0.941907
1301822071123,0.937854
1301822131123,0.941253
1301822191123,0.931040
1301822251123,0.935424
1301822311123,0.935767
1301822371123,0.941175
1301822431123,0.933545
1301822491123,0.934038
1301822551123,0.936660
1301822611123,0.930355
1301822671123,0.939648
1301822731123,0.938508
1301822791123,0.928117
1301822851123,0.930251
1301822911123,0.940182
1301822971123,0.938960
1301823031123,0.930563
1301823091123,0.932314
1301823151123,0.945296
1301823211123,0.932766
1301823271123,0.936376
1301823331123,0.930752
1301823391123,0.933068
1301823451123,0.933448
1301823511123,0.935571
1301823571123,0.930332
1301823631123,0.934445
1301823691123,0.932785
1301823751123,0.928765
1301823811123,0.939554
1301823871123,0.936796
1301823931123,0.932617
1301823991123,0.931833
1301824051123,0.936608
1301824111123,0.929797
1301824171123,0.931276
1301824231123,0.928960
1301824291123,0.934886
1301824351123,0.930773
1301824411123,0.938672
1301824471123,0.934666
1301824531123,0.931933
1301824591123,0.933942
1301824651123,0.934267
1301824711123,0.932256
1301824771123,0.936519
1301824831135,0.934370
1301824891135,0.938991
1301824951135,0.935342
1301825011135,0.927834
1301825071135,0.935827
1301825131135,0.932541
1301825191135,0.937892
1301825251135,0.932846
1301825311135,0.932503
1301825371135,0.935084
1301825431135,0.938768
1301825491135,0.942589
1301825551135,0.934835
1301825611135,0.920690
1301825671135,0.924897
1301825731135,0.933501
1301825791135,0.927825
1301825851135,0.927831
1301825911135,0.930028
1301825971135,0.921782
1301826031135,0.931631
1301826091135,0.932864
1301826151135,0.930825
1301826211135,0.929696
1301826271135,0.928083
1301826331135,0.926155
1301826391135,0.936038
1301826451135,0.932519
1301826511135,0.924039
1301826571135,0.925707
1301826631135,0.927949
1301826691135,0.925204
1301826751135,0.926992
1301826811135,0.929007
1301826871135,0.927612
1301826931135,0.927592
1301826991135,0.927813
1301827051135,0.921677
1301827111135,0.923811
1301827171135,0.928668
1301827231135,0.931778
1301827291135,0.928941
1301827351135,0.931105
1301827411135,0.932641
1301827471135,0.925614
1301827531135,0.925919
1301827591135,0.918407
1301827651135,0.923138
1301827711135,0.925655
1301827771135,0.920798
1301827831135,0.926590
1301827891135,0.927112
1301827951135,0.937264
1301828011135,0.929162
1301828071135,0.933126
1301828131135,0.929245
1301828191135,0.926658
1301828251135,0.929481
1301828311135,0.927782
1301828371135,0.917838
1301828431148,0.932734
1301828491148,0.927974
1301828551148,0.934014
1301828611148,0.922115
1301828671148,0.926379
1301828731148,0.922441
1301828791148,0.923872
1301828851148,0.926375
1301828911148,0.927485
1301828971148,0.925297
1301829031148,0.934524
1301829091148,0.927752
1301829151148,0.925725
1301829211148,0.924012
1301829271148,0.923217
1301829331148,0.936640
1301829391148,0.920528
1301829451148,0.920708
1301829511148,0.927603
1301829571148,0.923084
1301829631148,0.920783
1301829691148,0.917201
1301829751148,0.931068
1301829811148,0.931026
1301829871148,0.925549
1301829931148,0.923246
1301829991148,0.929688
1301830051148,0.922819
1301830111148,0.926617
1301830171148,0.921919
1301830231148,0.930845
1301830291148,0.927409
1301830351148,0.919594
1301830411148,0.926931
1301830471148,0.925509
1301830531148,0.927121
1301830591148,0.918396
1301830651148,0.920426
1301830711148,0.922976
1301830771148,0.924185
1301830831148,0.929342
1301830891148,0.929230
1301830951148,0.923954
1301831011148,0.922858
1301831071148,0.926816
1301831131148,0.921457
1301831191148,0.913710
1301831251148,0.921117
1301831311148,0.921531
1301831371148,0.925276
1301831431148,0.921553
1301831491148,0.918079
1301831551148,0.921137
1301831611148,0.927091
1301831671148,0.915208
1301831731148,0.919686
1301831791148,0.910063
1301831851148,0.921035
1301831911148,0.919103
1301831971148,0.915814
1301832031160,0.909872
1301832091160,0.916826
1301832151160,0.914362
1301832211160,0.921620
1301832271160,0.909947
1301832331160,0.909169
1301832391160,0.913072
1301832451160,0.916535
1301832511160,0.911079
1301832571160,0.918521
1301832631160,0.916574
1301832691160,0.923872
1301832751160,0.913134
1301832811160,0.928826
1301832871160,0.914984
1301832931160,0.917767
1301832991160,0.910488
1301833051160,0.916706
1301833111160,0.903855
1301833171160,0.903178
1301833231160,0.913184
1301833291160,0.904621
1301833351160,0.898700
1301833411160,0.912494
1301833471160,0.911934
1301833531160,0.910989
1301833591160,0.913257
1301833651160,0.912080
1301833711160,0.908136
1301833771160,0.911298
1301833831160,0.903453
1301833891160,0.911007
1301833951160,0.907724
1301834011160,0.913554
1301834071160,0.909493
1301834131160,0.909668
1301834191160,0.914903
1301834251160,0.908947
1301834311160,0.911363
1301834371160,0.906818
1301834431160,0.906332
1301834491160,0.913611
1301834551160,0.913380
1301834611160,0.907908
1301834671160,0.908666
1301834731160,0.911076
1301834791160,0.909883
1301834851160,0.911078
1301834911160,0.910666
1301834971160,0.910750
1301835031160,0.904290
1301835091160,0.903560
1301835151160,0.913754
1301835211160,0.911240
1301835271160,0.904647
1301835331160,0.904336
1301835391160,0.899643
1301835451160,0.914392
1301835511160,0.913268
1301835571160,0.907208
1301835631172,0.907009
1301835691172,0.916579
1301835751172,0.899340
1301835811172,0.904386
1301835871172,0.913766
1301835931172,0.906339
1301835991172,0.904380
1301836051172,0.897844
1301836111172,0.905012
1301836171172,0.906757
1301836231172,0.908021
1301836291172,0.911759
1301836351172,0.905548
1301836411172,0.904464
1301836471172,0.900035
1301836531172,0.907760
1301836591172,0.914524
1301836651172,0.905207
1301836711172,0.898590
1301836771172,0.900933
1301836831172,0.901910
1301836891172,0.907600
1301836951172,0.901710
1301837011172,0.904389
1301838151172,0.908746
1301838211172,0.961588
1301838271172,0.902131
1301838331172,0.905192
1301838391172,0.900300
1301838451172,0.904090
1301838511172,0.903931
1301838571172,0.903714
1301838631172,0.903287
1301838691172,0.900723
1301838751172,0.905937
1301838811172,0.899824
1301838871172,0.900481
1301838931172,0.899342
1301838991172,0.899024
1301839051172,0.903852
1301839111172,0.905910
1301839171172,0.899982
1301839231184,0.899428
1301839291184,0.891300
1301839351184,0.898645
1301839411184,0.898512
1301839471184,0.902605
1301839531184,0.904630
1301839591184,0.907189
1301839651184,0.896058
1301839711184,0.894352
1301839771184,0.901756
1301839831184,0.901854
1301839891184,0.892485
1301839951184,0.905005
1301840011184,0.900597
1301840071184,0.905095
1301840131184,0.894334
1301840191184,0.908661
1301840251184,0.898263
1301840311184,0.897544
1301840371184,0.902159
1301840431184,0.899406
1301840491184,0.895493
1301840551184,0.891491
1301840611184,0.892901
1301840671184,0.899719
1301840731184,0.897441
1301840791184,0.899084
1301840851184,0.904025
1301840911184,0.897134
1301840971184,0.896094
1301841031184,0.893500
1301841091184,0.894010
1301841151184,0.893669
1301841211184,0.900529
1301841271184,0.899560
1301841331184,0.898657
1301841391184,0.895152
1301841451184,0.891749
1301841511184,0.898234
1301841571184,0.888549
1301841631184,0.896991
1301841691184,0.890546
1301841751184,0.897025
1301841811184,0.896282
1301841871184,0.889607
1301841931184,0.899316
1301841991184,0.892593
1301842051184,0.900585
1301842111184,0.903290
1301842171184,0.903283
1301842231184,0.900005
1301842291184,0.897531
1301842351184,0.890329
1301842411184,0.900201
1301842471184,0.903271
1301842531184,0.894384
1301842591184,0.889972
1301842651184,0.893360
1301842711184,0.897768
1301842771184,0.900784
1301842831196,0.899604
1301842891196,0.907467
1301842951196,0.903105
1301843011196,0.892769
1301843071196,0.895419
1301843131196,0.897143
1301843191196,0.903407
1301843251196,0.898900
1301843311196,0.897615
1301843371196,0.906008
1301843431196,0.897563
1301843491196,0.898723
1301843551196,0.896277
1301843611196,0.894115
1301843671196,0.900845
1301843731196,0.898108
1301843791196,0.899831
1301843851196,0.892637
1301843911196,0.899203
1301843971196,0.898102
1301844031196,0.899393
1301844091196,0.899457
1301844151196,0.900287
1301844211196,0.896639
1301844271196,0.905565
1301844331196,0.892818
1301844391196,0.897610
1301844451196,0.898693
1301844511196,0.890830
1301844571196,0.892229
1301844631196,0.890647
1301844691196,0.896254
1301844751196,0.894805
1301844811196,0.886500
1301844871196,0.892110
1301844931196,0.894796
1301844991196,0.890693
1301845051196,0.896268
1301845111196,0.895195
1301845171196,0.900734
1301845231196,0.895127
1301845291196,0.900057
1301845351196,0.886504
1301845411196,0.885219
1301845471196,0.898908
1301845531196,0.899001
1301845591196,0.896905
1301845651196,0.896246
1301845711196,0.894362
1301845771196,0.894919
1301845831196,0.900113
1301845891196,0.895006
1301845951196,0.896254
1301846011196,0.889194
1301846071196,0.896830
1301846131196,0.891334
1301846191196,0.899617
1301846251196,0.904795
1301846311196,0.896501
1301846371196,0.903470
1301846431208,0.899570
1301846491208,0.890118
1301846551208,0.896169
1301846611208,0.895069
1301846671208,0.888196
1301846731208,0.894159
1301846791208,0.894094
1301846851208,0.896080
1301846911208,0.896597
1301846971208,0.891593
1301847031208,0.902700
1301847091208,0.900531
1301847151208,0.897360
1301847211208,0.895004
1301847271208,0.891941
1301847331208,0.896172
1301847391208,0.891798
1301847451208,0.893229
1301847511208,0.904694
1301847571208,0.898793
1301847631208,0.895807
1301847691208,0.901003
1301847751208,0.892639
1301847811208,0.897173
1301847871208,0.895237
1301847931208,0.887006
1301847991208,0.891023
1301848051208,0.890526
1301848111208,0.890148
1301848171208,0.901111
1301848231208,0.898033
1301848291208,0.897310
1301848351208,0.899832
1301848411208,0.896261
1301848471208,0.897324
1301848531208,0.897848
1301848591208,0.891315
1301848651208,0.897904
1301848711208,0.892793
1301848771208,0.889348
1301848831208,0.899881
1301848891208,0.892192
1301848951208,0.896709
1301849011208,0.890699
1301849071208,0.899974
1301849131208,0.899893
1301849191208,0.890722
1301849251208,0.901406
1301849311208,0.889630
1301849371208,0.893298
1301849431208,0.896343
1301849491208,0.889339
1301849551208,0.901035
1301849611208,0.898242
1301849671208,0.893796
1301849731208,0.888833
1301849791208,0.898814
1301849851208,0.906764
1301849911208,0.902280
1301849971208,0.895927
1301850031220,0.894743
1301850091220,0.897361
1301850151220,0.904219
1301850211220,0.896885
1301850271220,0.908371
1301850331220,0.901637
1301850391220,0.897316
1301850451220,0.895739
1301850511220,0.891322
1301850571220,0.898703
1301850631220,0.892785
1301850691220,0.895776
1301850751220,0.903327
1301850811220,0.899061
1301850871220,0.892350
1301850931220,0.903419
1301850991220,0.894467
1301851051220,0.892870
1301851111220,0.901980
1301851171220,0.900336
1301851231220,0.908534
1301851291220,0.897578
1301851351220,0.901930
1301851411220,0.893418
1301851471220,0.896151
1301851531220,0.896736
1301851591220,0.898974
1301851651220,0.896759
1301851711220,0.898383
1301851771220,0.900620
1301851831220,0.899120
1301851891220,0.907678
1301851951220,0.899818
1301852011220,0.901098
1301852071220,0.901053
1301852131220,0.902644
1301852191220,0.901077
1301852251220,0.891899
1301852311220,0.899562
1301852371220,0.898657
1301852431220,0.910698
1301852491220,0.898461
1301852551220,0.903815
1301852611220,0.896658
1301852671220,0.900061
1301852731220,0.902712
1301852791220,0.902067
1301852851220,0.901923
1301852911220,0.899535
1301852971220,0.901423
1301853031220,0.900438
1301853091220,0.910964
1301853151220,0.901268
1301853211220,0.910356
1301853271220,0.906117
1301853331220,0.908187
1301853391220,0.907922
1301853451220,0.908534